[[{"header":{"parameterUnit":"m.s-1","parameterCategory":1,"la1":30.2991,"la2":30.254,"lo1":-89.0895,"lo2":-89.0444,"dy":0.0017,"dx":0.0017,"nx":28,"ny":28,"refTime":"2025-09-15T09:00:00:Z","depth":0,"parameterNumber":2,"parameterNumberName":"U-component_of_WINDS"},"data":[0,0,0,0,0,0,0,0,0,0,0,0,0,0,0,0,0,0,0,0,0,0,0,0,0,0,0,0,0,0,0,0,0,0,0,0,0,0,0,0,0,0,0,0,0,0,0,0,0,0,0,0,0,0,0,0,0,0,1.6553,1.6552,0,1.6529,1.6529,1.6528,1.6433,1.643,1.6428,1.6426,1.6404,1.6406,1.6407,0,0,0,0,0,0,0,0,0,0,0,0,0,1.6517,1.6518,1.6553,1.6552,1.6552,1.6529,1.6529,1.6528,1.6433,1.643,1.6428,1.6425,1.6404,1.6406,1.6407,0,0,0,0,0,0,0,0,0,0,0,0,0,1.6517,1.6519,1.6553,1.6502,1.6497,1.6529,1.6529,1.6528,1.6434,1.643,1.6427,1.6424,1.6403,1.6405,1.6408,1.6488,0,0,1.6414,1.6415,0,0,0,0,0,0,0,0,1.6517,1.6519,1.6509,1.6505,1.65,1.648,1.6508,1.6515,1.6434,1.6458,1.6426,1.6422,1.6433,1.6432,1.6435,1.6487,1.6486,1.6415,1.6416,1.6417,1.6418,0,0,0,0,0,0,0,1.6517,1.6519,1.6543,1.6509,1.6504,1.6481,1.6477,1.6509,1.6464,1.6455,1.6448,1.6447,1.6429,1.6433,1.6434,1.6486,1.6415,1.6417,1.6418,1.6419,1.6602,1.6605,0,0,0,0,0,0,1.6524,1.652,1.6544,1.6543,1.6501,1.6484,1.648,1.649,1.6463,1.6456,1.645,1.6442,1.6431,1.6431,1.6433,1.6525,1.6417,1.6419,1.642,1.6599,1.6603,1.6607,0,0,0,0,0,0,1.6524,1.6527,1.6545,1.6529,1.653,1.6488,1.65,1.6491,1.6495,1.6459,1.6451,1.6462,1.6428,1.643,1.6475,1.6523,1.642,1.6422,1.6594,1.66,1.6605,1.671,0,0,0,0,0,0,1.6523,1.6528,1.6558,1.6531,1.6531,1.6587,1.6503,1.6493,1.6499,1.6489,1.6468,1.6462,1.6426,1.6472,1.6477,1.6524,1.6424,1.659,1.6597,1.6603,1.6702,1.6718,1.6732,0,0,0,0,0,1.6522,1.6589,1.656,1.6563,1.6567,1.659,1.659,1.6547,1.6503,1.6533,1.651,1.6462,1.6517,1.6477,1.6482,1.6531,1.6587,1.6595,1.6603,1.6695,1.6715,1.6732,0,0,0,0,0,0,1.6623,1.6584,1.6552,1.6611,1.6604,1.6574,1.661,1.6569,1.6576,1.6567,1.6514,1.651,1.6563,1.6551,1.6508,1.6607,1.6544,1.6553,1.6612,1.6631,1.6646,1.6647,1.6426,0,0,0,0,0,1.6652,1.6674,1.6639,1.6694,1.6693,1.6652,1.6661,1.6628,1.6619,1.6617,1.6597,1.6591,1.6606,1.6618,1.663,1.67,1.6694,1.6735,1.675,1.6763,1.6772,1.6807,1.6825,1.6633,1.6633,1.6633,0,0,1.6713,1.6694,1.6711,1.6714,1.6705,1.6729,1.6651,1.6679,1.6697,1.6621,1.6662,1.6648,1.6638,1.6695,1.672,1.6687,1.6823,1.6773,1.6783,1.6785,1.6817,1.6836,1.6852,1.6638,1.6637,1.6636,0,0,1.6835,1.6823,1.6868,1.686,1.6848,1.682,1.6831,1.6807,1.6794,1.6834,1.6778,1.6798,1.6826,1.6821,1.6823,1.6943,1.6899,1.6948,1.7027,1.7062,1.7077,1.7091,1.7133,1.7149,1.6957,1.6958,1.6958,0,1.6912,1.6945,1.6896,1.6928,1.6932,1.6863,1.6909,1.6904,1.6897,1.6901,1.6864,1.6898,1.6887,1.6942,1.6971,1.6975,1.6986,1.6951,1.7079,1.7092,1.7103,1.7144,1.716,1.6964,1.6963,1.6962,1.6962,0,1.704,1.7064,1.7102,1.7095,1.7102,1.7141,1.7099,1.7113,1.7079,1.7056,1.7098,1.7082,1.709,1.7101,1.7069,1.7152,1.7132,1.7088,1.7024,1.7129,1.7165,1.718,1.6972,1.697,1.6968,1.6967,0,0,1.7226,1.7191,1.7206,1.7202,1.7182,1.72,1.7236,1.7243,1.7255,1.7253,1.7281,1.7307,1.7266,1.7268,1.7235,1.7266,1.7362,1.7218,1.7217,1.7245,1.7452,1.7485,1.7504,1.7333,1.7336,1.7338,1.7453,0,1.7342,1.74,1.7357,1.7423,1.7444,1.738,1.7411,1.7403,1.7382,1.7398,1.7375,1.7394,1.7338,1.7339,1.7367,1.7344,1.7403,1.7336,1.736,1.7361,1.7364,1.7523,1.7558,1.7667,1.7467,1.747,1.7471,0,1.7485,1.7487,1.7555,1.7531,1.7538,1.7567,1.757,1.7585,1.7575,1.7558,1.756,1.7518,1.7552,1.7489,1.7535,1.7491,1.7498,1.7489,1.7492,1.7492,1.7423,1.7528,1.7701,1.7717,1.7494,1.7492,1.749,0,1.7613,1.7634,1.7676,1.7675,1.7648,1.767,1.766,1.7646,1.7653,1.7655,1.7659,1.7667,1.7671,1.7677,1.7639,1.7597,1.7691,1.7625,1.7678,1.7679,1.77,1.7699,1.7877,1.7706,1.7706,1.7706,1.7705,0,1.7748,1.7792,1.7733,1.776,1.7807,1.7758,1.7807,1.779,1.7779,1.7801,1.7746,1.7769,1.7717,1.7735,1.7706,1.7748,1.7751,1.7738,1.773,1.7743,1.7745,1.7747,1.7738,1.771,1.7709,1.7708,1.7707,0,1.7899,1.7862,1.7904,1.7875,1.7868,1.7905,1.788,1.7903,1.7879,1.7908,1.7912,1.7874,1.7892,1.7854,1.7867,1.7848,1.7908,1.7888,1.7911,1.7905,1.7961,1.7956,1.8146,1.8168,1.7983,1.7985,1.7987,0,1.7987,1.8019,1.7992,1.8003,1.7996,1.8014,1.802,1.7973,1.7982,1.7972,1.7997,1.801,1.8018,1.8049,1.8023,1.8033,1.8013,1.8079,1.8014,1.8026,1.8013,1.8012,1.8015,1.8092,1.8094,1.8096,1.8098,0,1.8147,1.8126,1.8137,1.8141,1.815,1.8151,1.8149,1.8161,1.8111,1.8124,1.8141,1.8147,1.8159,1.8173,1.8177,1.8167,1.8125,1.8118,1.8131,1.8144,1.8156,1.815,1.7948,1.8114,1.8112,1.8111,1.811,1.811,1.8268,1.8294,1.8279,1.8292,1.8285,1.8284,1.8305,1.8282,1.8295,1.8301,1.8273,1.8296,1.8285,1.8285,1.828,1.8298,1.8268,1.8287,1.8292,1.8297,1.8306,1.8154,1.8299,1.8298,1.8297,1.8297,1.8297,0,1.8425,1.8412,1.8425,1.8423,1.8434,1.8391,1.8386,1.8399,1.8419,1.8412,1.842,1.844,1.8453,1.8428,1.8437,1.8456,1.8437,1.846,1.8458,1.8457,1.8332,1.8319,1.8476,1.8476,1.8475,1.8475,1.8475,1.8475,1.8508,1.8548,1.8527,1.8563,1.855,1.8571,1.8572,1.8571,1.8564,1.8588,1.8598,1.8581,1.8567,1.8575,1.8585,1.8577,1.8583,1.8613,1.8599,1.8483,1.8465,1.8449,1.8437,1.8615,1.8615,1.8722,1.8723,1.8724]},{"header":{"parameterUnit":"m.s-1","parameterCategory":1,"la1":30.2991,"la2":30.254,"lo1":-89.0895,"lo2":-89.0444,"dy":0.0017,"dx":0.0017,"nx":28,"ny":28,"refTime":"2025-09-15T09:00:00:Z","depth":0,"parameterNumber":3,"parameterNumberName":"V-component_of_WINDS"},"data":[0,0,0,0,0,0,0,0,0,0,0,0,0,0,0,0,0,0,0,0,0,0,0,0,0,0,0,0,0,0,0,0,0,0,0,0,0,0,0,0,0,0,0,0,0,0,0,0,0,0,0,0,0,0,0,0,0,0,-1.7233,-1.7234,0,-1.7282,-1.7282,-1.7283,-1.7302,-1.7302,-1.7302,-1.7301,-1.7351,-1.7352,-1.7354,0,0,0,0,0,0,0,0,0,0,0,0,0,-1.7156,-1.7158,-1.7233,-1.7234,-1.7234,-1.7282,-1.7282,-1.7283,-1.7302,-1.7302,-1.7302,-1.7301,-1.7351,-1.7352,-1.7354,0,0,0,0,0,0,0,0,0,0,0,0,0,-1.7196,-1.7158,-1.7233,-1.7249,-1.7251,-1.7282,-1.7282,-1.7283,-1.7302,-1.7302,-1.7302,-1.7301,-1.735,-1.7352,-1.7354,-1.7372,0,0,-1.7361,-1.7362,0,0,0,0,0,0,0,0,-1.7193,-1.7199,-1.7246,-1.7248,-1.7251,-1.7286,-1.7274,-1.7313,-1.7302,-1.7283,-1.7301,-1.7301,-1.7329,-1.7333,-1.7343,-1.7374,-1.7376,-1.7361,-1.7362,-1.7363,-1.7364,0,0,0,0,0,0,0,-1.7191,-1.7197,-1.7252,-1.7247,-1.725,-1.7254,-1.726,-1.7281,-1.7307,-1.7284,-1.7286,-1.7291,-1.733,-1.7341,-1.7344,-1.7377,-1.7361,-1.7363,-1.7364,-1.7365,-1.7425,-1.7425,0,0,0,0,0,0,-1.7185,-1.7194,-1.7251,-1.7254,-1.7221,-1.7256,-1.7262,-1.7275,-1.7306,-1.7311,-1.7291,-1.7292,-1.7337,-1.7342,-1.7346,-1.7369,-1.7363,-1.7365,-1.7367,-1.7425,-1.7425,-1.7426,0,0,0,0,0,0,-1.7184,-1.719,-1.7249,-1.7224,-1.7232,-1.7257,-1.7271,-1.7276,-1.7286,-1.7312,-1.7316,-1.7297,-1.7337,-1.7343,-1.7365,-1.7371,-1.7366,-1.7368,-1.7425,-1.7425,-1.7425,-1.7414,0,0,0,0,0,0,-1.7181,-1.7189,-1.7196,-1.7224,-1.7233,-1.7267,-1.7272,-1.7277,-1.729,-1.7291,-1.7318,-1.7323,-1.7337,-1.7362,-1.7367,-1.7373,-1.737,-1.7424,-1.7425,-1.7425,-1.7414,-1.7414,-1.7414,0,0,0,0,0,-1.7178,-1.7191,-1.7196,-1.7203,-1.7243,-1.7267,-1.7273,-1.7289,-1.729,-1.7297,-1.7314,-1.7322,-1.7369,-1.7364,-1.737,-1.7377,-1.7424,-1.7425,-1.7425,-1.7414,-1.7414,-1.7414,0,0,0,0,0,0,-1.7162,-1.7195,-1.7201,-1.7223,-1.7243,-1.7271,-1.728,-1.7289,-1.7308,-1.7308,-1.7328,-1.7334,-1.7355,-1.7368,-1.7362,-1.7396,-1.7397,-1.7399,-1.7386,-1.7386,-1.7386,-1.7383,-1.7372,0,0,0,0,0,-1.7161,-1.7179,-1.7206,-1.7223,-1.7232,-1.7255,-1.7266,-1.7277,-1.7298,-1.7306,-1.7324,-1.7344,-1.7364,-1.7376,-1.7395,-1.7416,-1.7422,-1.7424,-1.7424,-1.7424,-1.7425,-1.7437,-1.7438,-1.7428,-1.7428,-1.7428,0,0,-1.7159,-1.7179,-1.7189,-1.722,-1.7237,-1.7254,-1.7261,-1.728,-1.7293,-1.7309,-1.7331,-1.7345,-1.7369,-1.739,-1.7401,-1.7402,-1.7429,-1.7425,-1.7424,-1.7426,-1.7438,-1.7439,-1.744,-1.7428,-1.7428,-1.7428,0,0,-1.7165,-1.7182,-1.7198,-1.7214,-1.7239,-1.7253,-1.7257,-1.7284,-1.7294,-1.7317,-1.7329,-1.7346,-1.7378,-1.7395,-1.7407,-1.7419,-1.7428,-1.7425,-1.7425,-1.7437,-1.7438,-1.7438,-1.7443,-1.7444,-1.7427,-1.7427,-1.7426,0,-1.7159,-1.7187,-1.7205,-1.7223,-1.7236,-1.7252,-1.7268,-1.7283,-1.7312,-1.7321,-1.7322,-1.7364,-1.7381,-1.7407,-1.741,-1.7419,-1.7424,-1.7422,-1.7436,-1.7437,-1.7438,-1.7442,-1.7444,-1.7426,-1.7426,-1.7426,-1.7426,0,-1.7179,-1.7198,-1.7207,-1.7236,-1.725,-1.7267,-1.7288,-1.73,-1.7311,-1.7325,-1.7348,-1.7369,-1.7393,-1.74,-1.741,-1.7428,-1.7428,-1.7432,-1.7434,-1.7438,-1.7443,-1.7445,-1.7425,-1.7426,-1.7426,-1.7426,0,0,-1.7175,-1.7213,-1.7217,-1.723,-1.7258,-1.7273,-1.7291,-1.7314,-1.7325,-1.7345,-1.736,-1.7388,-1.7393,-1.7407,-1.7419,-1.7429,-1.7438,-1.7433,-1.7434,-1.7433,-1.7459,-1.7455,-1.7456,-1.7444,-1.7444,-1.7445,-1.7457,0,-1.7184,-1.7217,-1.7234,-1.7259,-1.7276,-1.7292,-1.7307,-1.7326,-1.7341,-1.7358,-1.7374,-1.7393,-1.7398,-1.7406,-1.7417,-1.7435,-1.7443,-1.7434,-1.7458,-1.7459,-1.7452,-1.7459,-1.7455,-1.7465,-1.7459,-1.7459,-1.7459,0,-1.7199,-1.7219,-1.7246,-1.7273,-1.7281,-1.7295,-1.7318,-1.7334,-1.7356,-1.7366,-1.7382,-1.7394,-1.7414,-1.7414,-1.7441,-1.7435,-1.7446,-1.7456,-1.7457,-1.7459,-1.7459,-1.7461,-1.7469,-1.747,-1.7462,-1.7462,-1.7462,0,-1.7194,-1.7227,-1.7248,-1.7259,-1.729,-1.73,-1.7313,-1.7335,-1.7349,-1.7369,-1.7378,-1.74,-1.7412,-1.7429,-1.7447,-1.7446,-1.7472,-1.7474,-1.7481,-1.7481,-1.7486,-1.7485,-1.7495,-1.7493,-1.7493,-1.7493,-1.7493,0,-1.7202,-1.7218,-1.7246,-1.7258,-1.7277,-1.7296,-1.7314,-1.7329,-1.7348,-1.7364,-1.7379,-1.7394,-1.7416,-1.7434,-1.7448,-1.7469,-1.7474,-1.7482,-1.7486,-1.7481,-1.748,-1.7488,-1.7488,-1.7494,-1.7494,-1.7493,-1.7493,0,-1.7199,-1.7218,-1.7241,-1.727,-1.7277,-1.7289,-1.7314,-1.7327,-1.7342,-1.7362,-1.7368,-1.7392,-1.7413,-1.7433,-1.7461,-1.7471,-1.7492,-1.7496,-1.7484,-1.7486,-1.7491,-1.7491,-1.7507,-1.751,-1.7506,-1.7506,-1.7506,0,-1.7203,-1.7215,-1.7245,-1.7257,-1.727,-1.7289,-1.7302,-1.7322,-1.7336,-1.7362,-1.7372,-1.7394,-1.7413,-1.7447,-1.7467,-1.7489,-1.7494,-1.7499,-1.7498,-1.7492,-1.7494,-1.7493,-1.7495,-1.7498,-1.7498,-1.7498,-1.7498,0,-1.7207,-1.7217,-1.7235,-1.7258,-1.7274,-1.7292,-1.7311,-1.732,-1.7344,-1.7358,-1.738,-1.7395,-1.7424,-1.7447,-1.7471,-1.7485,-1.7496,-1.7498,-1.7501,-1.7496,-1.7488,-1.7492,-1.7483,-1.7498,-1.7498,-1.7498,-1.7498,-1.7498,-1.7208,-1.722,-1.7243,-1.7263,-1.728,-1.7297,-1.7311,-1.7328,-1.7347,-1.7372,-1.7383,-1.7405,-1.7428,-1.7462,-1.7476,-1.7494,-1.7496,-1.75,-1.7501,-1.7502,-1.7501,-1.7485,-1.7499,-1.7499,-1.7499,-1.7499,-1.7499,0,-1.7213,-1.7229,-1.7248,-1.7274,-1.729,-1.7299,-1.732,-1.7334,-1.7353,-1.7373,-1.7392,-1.7417,-1.7439,-1.7461,-1.7484,-1.7495,-1.75,-1.75,-1.7499,-1.7502,-1.7497,-1.7493,-1.7495,-1.7495,-1.7495,-1.7495,-1.7495,-1.7495,-1.7218,-1.7239,-1.7251,-1.728,-1.7295,-1.7317,-1.7329,-1.7345,-1.7362,-1.7389,-1.7408,-1.7422,-1.7443,-1.7468,-1.7488,-1.7494,-1.7502,-1.7501,-1.7508,-1.7503,-1.7503,-1.7503,-1.7498,-1.7502,-1.7502,-1.7511,-1.7512,-1.7512]}]]